Emporia, VA

12:38 PM EST on January 23, 2017 (GMT -0500)
Emporia-Greensville Regional

Weather History for KEMV - April, 2013

Change the Weather History Date:

Tuesday, April 2, 2013

  Actual Average Record
Temperature  
Mean Temperature 44 °F -  
Max Temperature 55 °F 67 °F 85 °F (1986)
Min Temperature 32 °F 38 °F 23 °F (1989)
Degree Days  
Heating Degree Days 22    
Moisture  
Dew Point 26 °F    
Average Humidity 52    
Maximum Humidity 87    
Minimum Humidity 26    
Precipitation  
Precipitation 0.00 in - - ()
Sea Level Pressure  
Sea Level Pressure 30.11 in    
Wind  
Wind Speed 5 mph (WNW)    
Max Wind Speed 14 mph    
Max Gust Speed 24 mph    
Visibility 10 miles    
Events      
Averages and records for this station are not official NWS values.
T = Trace of Precipitation, MM = Missing Value Source: NWS Daily Summary

Daily Weather History Graph

Daily Weather History Graph

Search for Another Location

Airport or City:

Trip Planner

Search our weather history database for the weather conditions in past years. The results will help you decide how hot, cold, wet, or windy it might be!

Date:

Astronomy

Apr. 02, 2013 Rise Set
Actual Time 6:54 AM EDT 7:33 PM EDT
Civil Twilight 6:27 AM EDT 7:59 PM EDT
Nautical Twilight 5:57 AM EDT 8:30 PM EDT
Astronomical Twilight 5:25 AM EDT 9:01 PM EDT
Moon 1:29 AM EDT (4/2) 11:49 AM EDT (4/2)
Length of Visible Light 13h 31m
Length of Day
12h 39m
Waning Gibbous, 56% of the Moon is Illuminated
Apr 2
Waning Gibbous
Apr 3
Last Quarter
Apr 10
New
Apr 18
First Quarter
Apr 25
Full

Hourly Weather History & Observations

Time (EDT) Temp. Windchill Dew Point Humidity Pressure Visibility Wind Dir Wind Speed Gust Speed Precip Events Conditions
12:15 AM 48.2 °F - 28.4 °F 46% 30.00 in 10.0 mi WNW 5.8 mph - N/A   Clear
12:35 AM 46.4 °F 41.9 °F 28.4 °F 50% 30.01 in 10.0 mi NW 9.2 mph - N/A   Clear
12:55 AM 46.4 °F - 28.4 °F 50% 30.03 in 10.0 mi Calm Calm - N/A   Clear
1:15 AM 44.6 °F 40.2 °F 28.4 °F 53% 30.03 in 10.0 mi WNW 8.1 mph - N/A   Clear
1:35 AM 44.6 °F 42.2 °F 28.4 °F 53% 30.04 in 10.0 mi WNW 4.6 mph - N/A   Scattered Clouds
1:55 AM 42.8 °F 41.1 °F 28.4 °F 57% 30.04 in 10.0 mi WNW 3.5 mph - N/A   Clear
2:15 AM 42.8 °F 40.1 °F 28.4 °F 57% 30.04 in 10.0 mi NW 4.6 mph - N/A   Clear
2:35 AM 42.8 °F 41.1 °F 28.4 °F 57% 30.05 in 10.0 mi WNW 3.5 mph - N/A   Scattered Clouds
2:55 AM 41.0 °F 39.0 °F 28.4 °F 61% 30.05 in 10.0 mi WNW 3.5 mph - N/A   Mostly Cloudy
3:15 AM 42.8 °F 41.1 °F 30.2 °F 61% 30.05 in 10.0 mi WNW 3.5 mph - N/A   Overcast
3:35 AM 42.8 °F 40.1 °F 30.2 °F 61% 30.05 in 10.0 mi NW 4.6 mph - N/A   Overcast
3:55 AM 41.0 °F 39.0 °F 28.4 °F 61% 30.05 in 10.0 mi WNW 3.5 mph - N/A   Mostly Cloudy
4:15 AM 39.2 °F 37.0 °F 30.2 °F 70% 30.05 in 10.0 mi NW 3.5 mph - N/A   Scattered Clouds
4:35 AM 35.6 °F - 30.2 °F 81% 30.06 in 10.0 mi Calm Calm - N/A   Scattered Clouds
4:55 AM 35.6 °F 31.7 °F 30.2 °F 81% 30.07 in 10.0 mi West 4.6 mph - N/A   Mostly Cloudy
5:15 AM 35.6 °F - 28.4 °F 75% 30.08 in 10.0 mi Calm Calm - N/A   Scattered Clouds
5:35 AM 32.0 °F 28.7 °F 28.4 °F 87% 30.08 in 10.0 mi West 3.5 mph - N/A   Clear
5:55 AM 32.0 °F - 28.4 °F 87% 30.09 in 10.0 mi Calm Calm - N/A   Clear
6:15 AM 32.0 °F 28.7 °F 28.4 °F 87% 30.10 in 10.0 mi West 3.5 mph - N/A   Clear
6:35 AM 32.0 °F - 28.4 °F 87% 30.12 in 10.0 mi Calm Calm - N/A   Clear
6:55 AM 32.0 °F - 26.6 °F 80% 30.12 in 10.0 mi Calm Calm - N/A   Clear
7:15 AM 32.0 °F - 28.4 °F 87% 30.13 in 10.0 mi Calm Calm - N/A   Clear
7:35 AM 33.8 °F 30.8 °F 28.4 °F 81% 30.15 in 10.0 mi WNW 3.5 mph - N/A   Clear
7:55 AM 37.4 °F - 28.4 °F 70% 30.16 in 10.0 mi Calm Calm - N/A   Clear
8:15 AM 41.0 °F 39.0 °F 28.4 °F 61% 30.16 in 10.0 mi WNW 3.5 mph - N/A   Clear
8:35 AM 42.8 °F 40.1 °F 26.6 °F 53% 30.17 in 10.0 mi NW 4.6 mph - N/A   Clear
8:55 AM 42.8 °F 39.3 °F 26.6 °F 53% 30.17 in 10.0 mi WNW 5.8 mph - N/A   Clear
9:15 AM 44.6 °F 43.1 °F 24.8 °F 46% 30.17 in 10.0 mi NW 3.5 mph - N/A   Clear
9:35 AM 46.4 °F 43.5 °F 23.0 °F 40% 30.17 in 10.0 mi West 5.8 mph - N/A   Clear
9:55 AM 46.4 °F 41.5 °F 23.0 °F 40% 30.16 in 10.0 mi WNW 10.4 mph - N/A   Clear
10:35 AM 48.2 °F - 23.0 °F 37% 30.16 in 10.0 mi NW 12.7 mph 16.1 mph N/A   Clear
10:55 AM 48.2 °F - 23.0 °F 37% 30.16 in - WNW 9.2 mph - N/A   Clear
11:15 AM 50.0 °F - 23.0 °F 35% 30.16 in 10.0 mi WSW 10.4 mph - N/A   Clear
11:35 AM 50.0 °F - 21.2 °F 32% 30.15 in 10.0 mi NW 5.8 mph - N/A   Clear
11:55 AM 50.0 °F - 23.0 °F 35% 30.15 in 10.0 mi WSW 6.9 mph - N/A   Clear
12:15 PM 51.8 °F - 23.0 °F 33% 30.14 in 10.0 mi SW 9.2 mph - N/A   Clear
12:35 PM 51.8 °F - 21.2 °F 30% 30.13 in 10.0 mi West 9.2 mph 20.7 mph N/A   Clear
12:55 PM 51.8 °F - 21.2 °F 30% 30.13 in 10.0 mi WNW 9.2 mph 24.2 mph N/A   Clear
1:15 PM 53.6 °F - 19.4 °F 26% 30.12 in 10.0 mi West 10.4 mph 20.7 mph N/A   Clear
1:35 PM 53.6 °F - 19.4 °F 26% 30.12 in 10.0 mi West 8.1 mph 18.4 mph N/A   Clear
1:55 PM 53.6 °F - 21.2 °F 28% 30.11 in 10.0 mi West 9.2 mph 16.1 mph N/A   Clear
2:15 PM 53.6 °F - 23.0 °F 30% 30.10 in 10.0 mi West 8.1 mph - N/A   Clear
2:35 PM 53.6 °F - 23.0 °F 30% 30.10 in 10.0 mi West 8.1 mph 16.1 mph N/A   Clear
2:55 PM 53.6 °F - 21.2 °F 28% 30.09 in - SW 13.8 mph 19.6 mph N/A   Clear
3:15 PM 53.6 °F - 19.4 °F 26% 30.09 in 10.0 mi West 6.9 mph 20.7 mph N/A   Clear
3:35 PM 55.4 °F - 21.2 °F 26% 30.09 in 10.0 mi West 9.2 mph 19.6 mph N/A   Clear
3:55 PM 53.6 °F - 21.2 °F 28% 30.08 in 10.0 mi West 9.2 mph 20.7 mph N/A   Clear
4:15 PM 55.4 °F - 21.2 °F 26% 30.07 in 10.0 mi NW 6.9 mph 17.3 mph N/A   Clear
4:35 PM 55.4 °F - 21.2 °F 26% 30.07 in 10.0 mi West 8.1 mph 19.6 mph N/A   Clear
4:55 PM 55.4 °F - 21.2 °F 26% 30.07 in 10.0 mi WNW 6.9 mph - N/A   Clear
5:15 PM 55.4 °F - 21.2 °F 26% 30.08 in 10.0 mi West 8.1 mph - N/A   Clear
5:35 PM 55.4 °F - 21.2 °F 26% 30.08 in 10.0 mi WSW 6.9 mph 16.1 mph N/A   Clear
5:55 PM 53.6 °F - 19.4 °F 26% 30.09 in 10.0 mi WSW 9.2 mph - N/A   Clear
6:15 PM 53.6 °F - 21.2 °F 28% 30.10 in 10.0 mi West 4.6 mph - N/A   Clear
6:35 PM 53.6 °F - 19.4 °F 26% 30.10 in 10.0 mi West 6.9 mph - N/A   Clear
6:55 PM 53.6 °F - 19.4 °F 26% 30.11 in 10.0 mi WSW 5.8 mph - N/A   Clear
7:15 PM 51.8 °F - 19.4 °F 28% 30.10 in 10.0 mi West 4.6 mph - N/A   Clear
7:35 PM 50.0 °F - 21.2 °F 32% 30.11 in - WNW 3.5 mph - N/A   Clear
7:55 PM 41.0 °F 39.0 °F 28.4 °F 61% 30.11 in 10.0 mi WNW 3.5 mph - N/A   Clear
8:15 PM 41.0 °F - 28.4 °F 61% 30.12 in 10.0 mi Calm Calm - N/A   Clear
8:35 PM 42.8 °F - 26.6 °F 53% 30.13 in 10.0 mi Calm Calm - N/A   Clear
8:55 PM 41.0 °F - 28.4 °F 61% 30.13 in 10.0 mi Calm Calm - N/A   Clear
9:15 PM 39.2 °F - 30.2 °F 70% 30.14 in 10.0 mi Calm Calm - N/A   Clear
9:35 PM 37.4 °F - 28.4 °F 70% 30.14 in 10.0 mi Calm Calm - N/A   Clear
9:55 PM 37.4 °F - 30.2 °F 75% 30.15 in 10.0 mi Calm Calm - N/A   Clear
10:15 PM 37.4 °F 34.9 °F 28.4 °F 70% 30.15 in 10.0 mi NW 3.5 mph - N/A   Clear
10:35 PM 35.6 °F - 30.2 °F 81% 30.15 in 10.0 mi Calm Calm - N/A   Clear
10:55 PM 35.6 °F - 30.2 °F 81% 30.15 in 10.0 mi Calm Calm - N/A   Clear
11:15 PM 32.0 °F - 28.4 °F 87% 30.15 in 10.0 mi Calm Calm - N/A   Clear
11:35 PM 33.8 °F - 28.4 °F 81% 30.15 in 10.0 mi Calm Calm - N/A   Clear
11:55 PM 33.8 °F - 30.2 °F 87% 30.16 in 10.0 mi Calm Calm - N/A   Clear